Skip Page Navigation
NASA JPL Caltech
NASA Logo - Jet Propulsion Laboratory + View the NASA Portal
+ Near-Earth Object (NEO) Program
Search JPL
JPL Home Earth Solar System Stars & Galaxies Technology
JPL Solar System Dynamics
BODIES ORBITS EPHEMERIDES TOOLS PHYSICAL DATA DISCOVERY FAQ SITE MAP
JPL Small-Body Database Browser
Search: [ help ]  
68372 (2001 PM9)
Classification: Apollo [NEO, PHA]          SPK-ID: 2068372
Ephemeris | Orbit Diagram | Orbital Elements | Physical Parameters | Discovery Circumstances | Close-Approach Data ]

[ hide orbit diagram ]
Orbit Diagram
Note: Make sure you have Java enabled on your browser to see the applet. This applet is provided as a 3D orbit visualization tool. The applet was implemented using 2-body methods, and hence should not be used for determining accurate long-term trajectories (over several years or decades) or planetary encounter circumstances. For accurate long-term ephemerides, please instead use our Horizons system.
Orbit Viewer

Additional Notes: the orbits shown in the applet are color coded. The planets are white lines, and the asteroid/comet is a blue line. The bright white line indicates the portion of the orbit that is above the ecliptic plane, and the darker portion is below the ecliptic plane. Likewise for the asteroid/comet orbit, the light blue indicates the portion above the ecliptic plane, and the dark blue the portion below the ecliptic plane.

Orbit Viewer applet originally written and kindly provided by Osamu Ajiki (AstroArts), and further modified by Ron Baalke (JPL).


Orbital Elements at Epoch 2456400.5 (2013-Apr-18.0) TDB
Reference: JPL 77 (heliocentric ecliptic J2000)
 Element Value Uncertainty (1-sigma)   Units 
e .4155754639029425 3.9382e-08  
a 1.618266575244985 1.3706e-08 AU
q .9457546925189242 6.4277e-08 AU
i 8.099667374634397 7.2053e-06 deg
node 253.0660294838155 4.8405e-05 deg
peri 322.1881497764955 4.7927e-05 deg
M 306.9868770915735 1.9463e-05 deg
tp 2456511.227223642010
(2013-Aug-06.72722364)
4.1973e-05 JED
period 751.9232658672038
2.06
9.5526e-06
2.615e-08
d
yr
n .4787722582101604 6.0824e-09 deg/d
Q 2.290778457971046 1.9402e-08 AU
  Orbit Determination Parameters
   # obs. used (total)      286  
   data-arc span      3458 days (9.47 yr)  
   first obs. used      2001-08-11  
   last obs. used      2011-01-29  
   planetary ephem.      DE405  
   SB-pert. ephem.      SB405-CPV-2  
   condition code      0  
   fit RMS      .62509  
   data source      ORB  
   producer      Otto Matic  
   solution date      2013-Apr-29 15:38:22  

Additional Information
 Earth MOID = .00374695 AU 
 T_jup = 4.220 
[ show covariance matrix ]

Ephemeris | Orbit Diagram | Orbital Elements | Physical Parameters | Discovery Circumstances | Close-Approach Data ]

Physical Parameter Table
Parameter Symbol Value Units Sigma Reference Notes
absolute magnitude H 18.622 mag .72674 77 autocmod 2.5c

68372 (2001 PM9)          Discovered 2001-Aug-11 by NEAT at Palomar (644)
Reference: 20030910/Numbers.arcLast Updated: 2004-04-19

[ show close-approach data ]
Ephemeris | Orbit Diagram | Orbital Elements | Physical Parameters | Discovery Circumstances | Close-Approach Data ]
ABOUT SSD CREDITS/AWARDS PRIVACY/COPYRIGHT GLOSSARY LINKS
FirstGov 2013-May-24 08:17 UT
(server date/time)  
NASA Home Page
Site Manager:   Donald K. Yeomans
Webmaster  Alan B. Chamberlin